• MPC Preparation (Info)

  • MPEC 2016-O218: 2014 KX101

    The following Minor Planet Electronic Circular may be linked-to from your own Web pages, but must not otherwise be redistributed electronically.

    A form allowing access to any MPEC is at the bottom of this page.


    Read MPEC 2016-O217 Read MPEC 2016-O219


    M.P.E.C. 2016-O218                               Issued 2016 July 17, 17:31 UT
    
         The Minor Planet Electronic Circulars contain information on unusual
             minor planets and routine data on comets.  They are published
        on behalf of Division F of the International Astronomical Union by the
              Minor Planet Center, Smithsonian Astrophysical Observatory,
                              Cambridge, MA 02138, U.S.A.
    
                 Prepared using the Tamkin Foundation Computer Network
    
                                  MPC@CFA.HARVARD.EDU
                URL https://www.minorplanetcenter.net/    ISSN 1523-6714
    
                                      2014 KX101
    
    Observations:
         K14KA1X  C2013 06 04.39634 15 54 29.388-16 21 47.56         22.4 wLEO218F51
         K14KA1X  C2013 06 04.41098 15 54 29.306-16 21 47.07         22.4 wLEO218F51
         K14KA1X  C2013 06 04.42561 15 54 29.213-16 21 46.88         22.2 wLEO218F51
         K14KA1X* C2014 05 23.41262 16 05 35.039-16 57 46.52         22.3 wLEO218F51
         K14KA1X  C2014 05 23.43837 16 05 34.872-16 57 46.02         22.4 wLEO218F51
         K14KA1X  C2014 05 23.45124 16 05 34.793-16 57 45.01         22.7 wLEO218F51
         K14KA1X  C2014 05 28.43015 16 05 02.712-16 56 20.05         22.4 wLEO218F51
         K14KA1X  C2014 05 28.44075 16 05 02.643-16 56 20.09         22.3 wLEO218F51
         K14KA1X  C2014 05 28.45137 16 05 02.572-16 56 19.69         22.0 wLEO218F51
         K14KA1X  C2014 05 28.46199 16 05 02.501-16 56 19.64         22.2 wLEO218F51
         K14KA1X  C2014 06 24.37152 16 02 20.777-16 50 00.94         22.6 wLEO218F51
         K14KA1X  C2014 06 24.38433 16 02 20.696-16 50 00.79         22.4 wLEO218F51
         K14KA1X  C2014 06 24.39717 16 02 20.631-16 50 00.49         22.3 wLEO218F51
         K14KA1X  C2014 06 24.40995 16 02 20.564-16 50 00.60         22.4 wLEO218F51
         K14KA1X  C2014 07 26.31218 16 00 16.458-16 47 18.30         22.4 wLEO218F51
         K14KA1X  C2014 07 26.32406 16 00 16.420-16 47 18.36         22.5 wLEO218F51
         K14KA1X  C2014 07 26.33594 16 00 16.406-16 47 18.33         22.3 wLEO218F51
         K14KA1X  C2014 07 26.34780 16 00 16.371-16 47 18.39         22.8 wLEO218F51
         K14KA1X  C2014 08 22.25022 16 00 02.351-16 50 08.54         22.7 wLEO218F51
         K14KA1X  C2014 08 22.26190 16 00 02.358-16 50 08.68         22.7 wLEO218F51
         K14KA1X  C2014 08 22.27358 16 00 02.361-16 50 08.91         22.5 wLEO218F51
         K14KA1X  C2014 08 22.28526 16 00 02.391-16 50 09.15         22.4 wLEO218F51
         K14KA1X  C2015 07 12.34954 16 10 40.114-17 18 41.41         22.9 wLEO218F51
         K14KA1X  C2015 07 12.36129 16 10 40.061-17 18 41.50         22.7 wLEO218F51
         K14KA1X  C2015 07 12.37306 16 10 40.015-17 18 41.20         22.6 wLEO218F51
         K14KA1X  C2015 07 12.38397 16 10 39.967-17 18 41.33         22.6 wLEO218F51
    
    Observer details:
    F51 Pan-STARRS 1, Haleakala.  Observers B. Gibson, T. Goggia, N. Primak,
        A. Schultz, M. Willman.  Measurers K. Chambers, S. Chastel, Y.-T. Chen,
        L. Denneau, H. Flewelling, M. Holman, M. Huber, R. Jedicke, M. Lackner,
        E. Lilly, H.-W. Lin, E. Magnier, M. Micheli, M. Payne, P. Veres,
        R. Wainscoat, C. Waters, R. Weryk.  1.8-m Ritchey-Chretien + CCD.
    
    Orbital elements:
    2014 KX101
    Epoch 2016 July 31.0 TT = JDT 2457600.5                 MPC
    M  19.12202              (2000.0)            P               Q
    n   0.00392380     Peri.   86.50764     -0.80790919     +0.58683318
    a  39.8105192      Node   129.41683     -0.56460625     -0.74457401
    e   0.2430273      Incl.    4.00373     -0.16882692     -0.31817661
    P 251              H    7.4           G   0.15           U   3
    Residuals in seconds of arc
    130604 F51  0.1-  0.1-    140528 F51  0.1-  0.0     140822 F51  0.0   0.0
    130604 F51  0.1+  0.1+    140624 F51  0.1+  0.1-    140822 F51  0.0   0.1-
    130604 F51  0.1+  0.1+    140624 F51  0.1-  0.1-    140822 F51  0.2-  0.2-
    140523 F51  0.0   0.2-    140624 F51  0.0   0.1+    140822 F51  0.1+  0.3-
    140523 F51  0.0   0.1-    140624 F51  0.0   0.1-    150712 F51  0.1+  0.1+
    140523 F51  0.1+  0.6+    140726 F51  0.1+  0.0     150712 F51  0.0   0.0
    140528 F51  0.0   0.1+    140726 F51  0.1-  0.1-    150712 F51  0.0   0.2+
    140528 F51  0.0   0.1-    140726 F51  0.1+  0.0     150712 F51  0.0   0.0
    140528 F51  0.1-  0.1+    140726 F51  0.0   0.1-
    
    Ephemeris:
    2014 KX101               a,e,i = 39.81, 0.24, 4                  q = 30.135
    Date    TT    R. A. (2000) Decl.     Delta      r     Elong.  Phase     V
    2016 06 17    16 22 29.5 -17 51 01  30.0674 31.0268   160.5     0.6    22.4
    ...
    2016 07 02    16 21 05.6 -17 48 41  30.1841 31.0321   146.0     1.1    22.4
    ...
    2016 07 10    16 20 27.6 -17 47 51  30.2691 31.0350   138.3     1.2    22.4
    ...
    2016 07 16    16 20 02.8 -17 47 26  30.3420 31.0371   132.5     1.4    22.5
    2016 07 17    16 19 59.1 -17 47 23  30.3548 31.0375   131.5     1.4    22.5
    2016 07 18    16 19 55.4 -17 47 20  30.3679 31.0378   130.5     1.4    22.5
    ...
    2016 07 24    16 19 35.6 -17 47 11  30.4499 31.0400   124.7     1.5    22.5
    ...
    2016 08 01    16 19 15.5 -17 47 17  30.5683 31.0429   117.0     1.7    22.5
    ...
    2016 08 16    16 18 58.8 -17 48 29  30.8112 31.0483   102.6     1.8    22.5
    
    A. U. Tomatic                (C) Copyright 2016 MPC           M.P.E.C. 2016-O218
    

    Read MPEC 2016-O217 Read MPEC 2016-O219


    MPEC number:

    Enter an MPEC number in one of the following forms:

    • 1997-B01 (the full form)
    • J97B01 (the packed version of the full form)
    • B01 (the abbreviated form)